Tracking 22458 objects as of 2-Mar-2021
HD Live streaming from Space Station
objects crossing your sky now

COSMOS 736

Track COSMOS 736 now!
10-day predictions
COSMOS 736 is classified as:


NORAD ID: 7825
Int'l Code: 1975-045E
Perigee: 1,476.9 km
Apogee: 1,492.8 km
Inclination: 74.0 °
Period: 115.5 minutes
Semi major axis: 7855 km
RCS: 0.6859 m2 (medium)
Launch date: May 28, 1975
Source: Commonwealth of Independent States (former USSR) (CIS)
Launch site: PLESETSK MISSILE AND SPACE COMPLEX (PKMTR)
aabbcc
Your satellite tracking list
Your tracking list is empty




NASA's NSSDC Master Catalog

Two Line Element Set (TLE):
1 07825U 75045E   21060.91707815  .00000005  00000-0  14543-3 0  9995
2 07825  74.0170 126.1857 0010137 141.5593  30.3046 12.46851681 82966
Source of the keplerian elements: AFSPC